Regional Weather Roundup
Issued by NWS

Home | Current Version | Previous Version | Text Only | Print | Product List | Glossary On
Versions: 1 2 3 4 5 6 7 8 9 10 11 12 13 14 15 16 17 18 19 20 21 22 23 24 25 26 27 28 29 30 31 32 33 34 35 36 37 38 39 40 41 42 43 44 45 46 47 48 49 50
990
ASUS43 KLMK 251310
RWRKY
KENTUCKY REGIONAL WEATHER ROUNDUP
NATIONAL WEATHER SERVICE LOUISVILLE KY
900 AM EDT WED APR 25 2018

NOTE "FAIR" INDICATES FEW OR NO CLOUDS BELOW 12,000 FEET
WITH NO SIGNIFICANT WEATHER AND/OR OBSTRUCTIONS TO VISIBILITY.

KYZ001>023-026-027-061>063-070>075-251400-
WESTERN AND SOUTH CENTRAL KENTUCKY

CITY           SKY/WX    TMP DP  RH WIND       PRES   REMARKS
PADUCAH        FAIR      58  53  84 CALM      30.00R
HENDERSON      FAIR      54  54 100 NW3       30.03R FOG
OWENSBORO      FOG       54  52  94 NW3       30.02R VSB 1/2
HOPKINSVILLE     N/A     54  54 100 CALM      30.00S FOG
BOWLING GREEN  CLOUDY    56  53  90 NW7       30.01R
GLASGOW        CLOUDY    55  51  87 NW7       29.99R
$$

KYZ024-025-028>034-038-045-046-053-251400-
NORTH CENTRAL KENTUCKY

CITY           SKY/WX    TMP DP  RH WIND       PRES   REMARKS
LOUISVILLE/SDF CLOUDY    57  52  82 NW9       29.98R
LOUISVILLE/LOU CLOUDY    56  52  86 NW9       29.98R
FORT KNOX      CLOUDY    54  54  99 W7        29.99F
$$

KYZ035>037-039>044-047>052-055>060-089>105-251400-
NORTHEAST KENTUCKY

CITY           SKY/WX    TMP DP  RH WIND       PRES   REMARKS
LEXINGTON      LGT RAIN  54  51  90 NW6       29.94R FOG
COVINGTON      CLOUDY    54  50  86 NW8       29.93R
FRANKFORT      CLOUDY    55  49  80 NW7       29.94R
$$

KYZ054-064>069-076>088-106>120-251400-
SOUTHEAST KENTUCKY

CITY           SKY/WX    TMP DP  RH WIND       PRES   REMARKS
JACKSON        CLOUDY    52  51  97 VRB3      29.90S FOG
LONDON         LGT RAIN  53  52  96 NW5       29.93R FOG
SOMERSET       CLOUDY    54  52  94 NW6       29.97R
MIDDLESBORO    CLOUDY    55  53  94 NW6       29.93R
MONTICELLO     CLOUDY    55  52  89 VRB6      29.98R
$$





USA.gov is the U.S. government's official web portal to all federal, state and local government web resources and services.